owner,sensor,date,latitude,longitude,vertical_datum,mass_concentration_of_oxygen_in_sea_water,qcFlag 
SCCF RECON,ioos:station:SCCF:13:1,2017-03-01T00:00:00Z,26.5255,-82.0032,2.335,-9999.0,1111122 
SCCF RECON,ioos:station:SCCF:13:1,2017-03-01T01:00:00Z,26.5255,-82.0032,2.272,-9999.0,1111122 
SCCF RECON,ioos:station:SCCF:13:1,2017-03-01T02:00:00Z,26.5255,-82.0032,2.229,-9999.0,1111122 
SCCF RECON,ioos:station:SCCF:13:1,2017-03-01T03:00:00Z,26.5255,-82.0032,2.25,-9999.0,1111122 
SCCF RECON,ioos:station:SCCF:13:1,2017-03-01T04:00:00Z,26.5255,-82.0032,2.41,-9999.0,1111122 
SCCF RECON,ioos:station:SCCF:13:1,2017-03-01T05:00:00Z,26.5255,-82.0032,2.53,-9999.0,1111122 
SCCF RECON,ioos:station:SCCF:13:1,2017-03-01T06:00:00Z,26.5255,-82.0032,2.6,-9999.0,1111122 
SCCF RECON,ioos:station:SCCF:13:1,2017-03-01T07:00:00Z,26.5255,-82.0032,2.66,-9999.0,1111122 
SCCF RECON,ioos:station:SCCF:13:1,2017-03-01T08:00:00Z,26.5255,-82.0032,2.688,-9999.0,1111122 
SCCF RECON,ioos:station:SCCF:13:1,2017-03-01T09:00:00Z,26.5255,-82.0032,2.65,-9999.0,1111122 
SCCF RECON,ioos:station:SCCF:13:1,2017-03-01T10:00:00Z,26.5255,-82.0032,2.55,-9999.0,1111122 
SCCF RECON,ioos:station:SCCF:13:1,2017-03-01T11:00:00Z,26.5255,-82.0032,2.47,-9999.0,1111122 
SCCF RECON,ioos:station:SCCF:13:1,2017-03-01T12:00:00Z,26.5255,-82.0032,2.38,-9999.0,1111122 
SCCF RECON,ioos:station:SCCF:13:1,2017-03-01T13:00:00Z,26.5255,-82.0032,2.3,-9999.0,1111122 
SCCF RECON,ioos:station:SCCF:13:1,2017-03-01T14:00:00Z,26.5255,-82.0032,2.23,-9999.0,1111122 
SCCF RECON,ioos:station:SCCF:13:1,2017-03-01T15:00:00Z,26.5255,-82.0032,2.215,-9999.0,1111122 
SCCF RECON,ioos:station:SCCF:13:1,2017-03-01T16:00:00Z,26.5255,-82.0032,2.35,-9999.0,1111122 
SCCF RECON,ioos:station:SCCF:13:1,2017-03-01T17:00:00Z,26.5255,-82.0032,2.471,-9999.0,1111122 
SCCF RECON,ioos:station:SCCF:13:1,2017-03-01T18:00:00Z,26.5255,-82.0032,2.54,-9999.0,1111122 
SCCF RECON,ioos:station:SCCF:13:1,2017-03-01T19:00:00Z,26.5255,-82.0032,2.59,-9999.0,1111122 
SCCF RECON,ioos:station:SCCF:13:1,2017-03-01T20:00:00Z,26.5255,-82.0032,2.62,-9999.0,1111122 
SCCF RECON,ioos:station:SCCF:13:1,2017-03-01T21:00:00Z,26.5255,-82.0032,2.61,-9999.0,1111122 
SCCF RECON,ioos:station:SCCF:13:1,2017-03-01T22:00:00Z,26.5255,-82.0032,2.539,-9999.0,1111122 
SCCF RECON,ioos:station:SCCF:13:1,2017-03-01T23:00:00Z,26.5255,-82.0032,2.434,-9999.0,1111122 
SCCF RECON,ioos:station:SCCF:13:1,2017-03-02T00:00:00Z,26.5255,-82.0032,2.351,-9999.0,1111122 
SCCF RECON,ioos:station:SCCF:13:1,2017-03-02T01:00:00Z,26.5255,-82.0032,2.281,-9999.0,1111122 
SCCF RECON,ioos:station:SCCF:13:1,2017-03-02T02:00:00Z,26.5255,-82.0032,2.21,-9999.0,1111122 
SCCF RECON,ioos:station:SCCF:13:1,2017-03-02T03:00:00Z,26.5255,-82.0032,2.15,-9999.0,1111122 
SCCF RECON,ioos:station:SCCF:13:1,2017-03-02T04:00:00Z,26.5255,-82.0032,2.21,-9999.0,1111122 
SCCF RECON,ioos:station:SCCF:13:1,2017-03-02T05:00:00Z,26.5255,-82.0032,2.39,-9999.0,1111122 
SCCF RECON,ioos:station:SCCF:13:1,2017-03-02T06:00:00Z,26.5255,-82.0032,2.49,-9999.0,1111122 
SCCF RECON,ioos:station:SCCF:13:1,2017-03-02T07:00:00Z,26.5255,-82.0032,2.53,-9999.0,1111122 
SCCF RECON,ioos:station:SCCF:13:1,2017-03-02T08:00:00Z,26.5255,-82.0032,2.57,-9999.0,1111122 
SCCF RECON,ioos:station:SCCF:13:1,2017-03-02T09:00:00Z,26.5255,-82.0032,2.6,-9999.0,1111122 
SCCF RECON,ioos:station:SCCF:13:1,2017-03-02T10:00:00Z,26.5255,-82.0032,2.577,-9999.0,1111122 
SCCF RECON,ioos:station:SCCF:13:1,2017-03-02T11:00:00Z,26.5255,-82.0032,2.5,-9999.0,1111122 
SCCF RECON,ioos:station:SCCF:13:1,2017-03-02T12:00:00Z,26.5255,-82.0032,2.41,-9999.0,1111122 
SCCF RECON,ioos:station:SCCF:13:1,2017-03-02T13:00:00Z,26.5255,-82.0032,2.34,-9999.0,1111122 
SCCF RECON,ioos:station:SCCF:13:1,2017-03-02T14:00:00Z,26.5255,-82.0032,2.29,-9999.0,1111122 
SCCF RECON,ioos:station:SCCF:13:1,2017-03-02T15:00:00Z,26.5255,-82.0032,2.25,-9999.0,1111122 
SCCF RECON,ioos:station:SCCF:13:1,2017-03-02T17:00:00Z,26.5255,-82.0032,2.43,-9999.0,1111122 
SCCF RECON,ioos:station:SCCF:13:1,2017-03-02T18:00:00Z,26.5255,-82.0032,2.53,-9999.0,1111122 
SCCF RECON,ioos:station:SCCF:13:1,2017-03-02T19:00:00Z,26.5255,-82.0032,2.59,-9999.0,1111122 
SCCF RECON,ioos:station:SCCF:13:1,2017-03-02T20:00:00Z,26.5255,-82.0032,2.64,-9999.0,1111122 
SCCF RECON,ioos:station:SCCF:13:1,2017-03-02T21:00:00Z,26.5255,-82.0032,2.663,-9999.0,1111122 
SCCF RECON,ioos:station:SCCF:13:1,2017-03-02T22:00:00Z,26.5255,-82.0032,2.63,-9999.0,1111122 
SCCF RECON,ioos:station:SCCF:13:1,2017-03-02T23:00:00Z,26.5255,-82.0032,2.549,-9999.0,1111122 
SCCF RECON,ioos:station:SCCF:13:1,2017-03-03T00:00:00Z,26.5255,-82.0032,2.46,-9999.0,1111122 
SCCF RECON,ioos:station:SCCF:13:1,2017-03-03T01:00:00Z,26.5255,-82.0032,2.38,-9999.0,1111122 
SCCF RECON,ioos:station:SCCF:13:1,2017-03-03T02:00:00Z,26.5255,-82.0032,2.3,-9999.0,1111122 
SCCF RECON,ioos:station:SCCF:13:1,2017-03-03T03:00:00Z,26.5255,-82.0032,2.22,-9999.0,1111122 
SCCF RECON,ioos:station:SCCF:13:1,2017-03-03T04:00:00Z,26.5255,-82.0032,2.152,-9999.0,1111122 
SCCF RECON,ioos:station:SCCF:13:1,2017-03-03T05:00:00Z,26.5255,-82.0032,2.151,-9999.0,1111122 
SCCF RECON,ioos:station:SCCF:13:1,2017-03-03T06:00:00Z,26.5255,-82.0032,2.27,-9999.0,1111122 
SCCF RECON,ioos:station:SCCF:13:1,2017-03-03T07:00:00Z,26.5255,-82.0032,2.38,-9999.0,1111122 
SCCF RECON,ioos:station:SCCF:13:1,2017-03-03T08:00:00Z,26.5255,-82.0032,2.44,-9999.0,1111122 
SCCF RECON,ioos:station:SCCF:13:1,2017-03-03T09:00:00Z,26.5255,-82.0032,2.46,-9999.0,1111122 
SCCF RECON,ioos:station:SCCF:13:1,2017-03-03T10:00:00Z,26.5255,-82.0032,2.435,-9999.0,1111122 
SCCF RECON,ioos:station:SCCF:13:1,2017-03-03T11:00:00Z,26.5255,-82.0032,2.37,-9999.0,1111122 
SCCF RECON,ioos:station:SCCF:13:1,2017-03-03T12:00:00Z,26.5255,-82.0032,2.3,-9999.0,1111122 
SCCF RECON,ioos:station:SCCF:13:1,2017-03-03T13:00:00Z,26.5255,-82.0032,2.243,-9999.0,1111122 
SCCF RECON,ioos:station:SCCF:13:1,2017-03-03T14:00:00Z,26.5255,-82.0032,2.203,-9999.0,1111122 
SCCF RECON,ioos:station:SCCF:13:1,2017-03-03T15:00:00Z,26.5255,-82.0032,2.152,-9999.0,1111122 
SCCF RECON,ioos:station:SCCF:13:1,2017-03-03T16:00:00Z,26.5255,-82.0032,2.109,-9999.0,1111122 
SCCF RECON,ioos:station:SCCF:13:1,2017-03-03T17:00:00Z,26.5255,-82.0032,2.131,-9999.0,1111122 
SCCF RECON,ioos:station:SCCF:13:1,2017-03-03T18:00:00Z,26.5255,-82.0032,2.23,-9999.0,1111122 
SCCF RECON,ioos:station:SCCF:13:1,2017-03-03T19:00:00Z,26.5255,-82.0032,2.333,-9999.0,1111122 
SCCF RECON,ioos:station:SCCF:13:1,2017-03-03T20:00:00Z,26.5255,-82.0032,2.413,-9999.0,1111122 
SCCF RECON,ioos:station:SCCF:13:1,2017-03-03T21:00:00Z,26.5255,-82.0032,2.46,-9999.0,1111122 
SCCF RECON,ioos:station:SCCF:13:1,2017-03-03T22:00:00Z,26.5255,-82.0032,2.5,-9999.0,1111122 
SCCF RECON,ioos:station:SCCF:13:1,2017-03-03T23:00:00Z,26.5255,-82.0032,2.51,-9999.0,1111122 
SCCF RECON,ioos:station:SCCF:13:1,2017-03-04T00:00:00Z,26.5255,-82.0032,2.427,-9999.0,1111122 
SCCF RECON,ioos:station:SCCF:13:1,2017-03-04T01:00:00Z,26.5255,-82.0032,2.3,-9999.0,1111122 
SCCF RECON,ioos:station:SCCF:13:1,2017-03-04T02:00:00Z,26.5255,-82.0032,2.2,-9999.0,1111122 
SCCF RECON,ioos:station:SCCF:13:1,2017-03-04T03:00:00Z,26.5255,-82.0032,2.115,-9999.0,1111122 
SCCF RECON,ioos:station:SCCF:13:1,2017-03-04T04:00:00Z,26.5255,-82.0032,2.04,-9999.0,1111122 
SCCF RECON,ioos:station:SCCF:13:1,2017-03-04T05:00:00Z,26.5255,-82.0032,1.99,-9999.0,1111122 
SCCF RECON,ioos:station:SCCF:13:1,2017-03-04T06:00:00Z,26.5255,-82.0032,1.968,-9999.0,1111122 
SCCF RECON,ioos:station:SCCF:13:1,2017-03-04T07:00:00Z,26.5255,-82.0032,2.01,-9999.0,1111122 
SCCF RECON,ioos:station:SCCF:13:1,2017-03-04T08:00:00Z,26.5255,-82.0032,2.09,-9999.0,1111122 
SCCF RECON,ioos:station:SCCF:13:1,2017-03-04T09:00:00Z,26.5255,-82.0032,2.164,-9999.0,1111122 
SCCF RECON,ioos:station:SCCF:13:1,2017-03-04T10:00:00Z,26.5255,-82.0032,2.21,-9999.0,1111122 
SCCF RECON,ioos:station:SCCF:13:1,2017-03-04T11:00:00Z,26.5255,-82.0032,2.222,-9999.0,1111122 
SCCF RECON,ioos:station:SCCF:13:1,2017-03-04T12:00:00Z,26.5255,-82.0032,2.22,-9999.0,1111122 
SCCF RECON,ioos:station:SCCF:13:1,2017-03-04T13:00:00Z,26.5255,-82.0032,2.17,-9999.0,1111122 
SCCF RECON,ioos:station:SCCF:13:1,2017-03-04T14:00:00Z,26.5255,-82.0032,2.11,-9999.0,1111122 
SCCF RECON,ioos:station:SCCF:13:1,2017-03-04T15:00:00Z,26.5255,-82.0032,2.062,-9999.0,1111122 
SCCF RECON,ioos:station:SCCF:13:1,2017-03-04T16:00:00Z,26.5255,-82.0032,2.054,-9999.0,1111122 
SCCF RECON,ioos:station:SCCF:13:1,2017-03-04T17:00:00Z,26.5255,-82.0032,2.059,-9999.0,1111122 
SCCF RECON,ioos:station:SCCF:13:1,2017-03-04T18:00:00Z,26.5255,-82.0032,2.137,-9999.0,1111122 
SCCF RECON,ioos:station:SCCF:13:1,2017-03-04T19:00:00Z,26.5255,-82.0032,2.212,-9999.0,1111122 
SCCF RECON,ioos:station:SCCF:13:1,2017-03-04T20:00:00Z,26.5255,-82.0032,2.294,-9999.0,1111122 
SCCF RECON,ioos:station:SCCF:13:1,2017-03-04T21:00:00Z,26.5255,-82.0032,2.36,-9999.0,1111122 
SCCF RECON,ioos:station:SCCF:13:1,2017-03-04T22:00:00Z,26.5255,-82.0032,2.417,-9999.0,1111122 
SCCF RECON,ioos:station:SCCF:13:1,2017-03-04T23:00:00Z,26.5255,-82.0032,2.43,-9999.0,1111122 
SCCF RECON,ioos:station:SCCF:13:1,2017-03-05T00:00:00Z,26.5255,-82.0032,2.4,-9999.0,1111122 
SCCF RECON,ioos:station:SCCF:13:1,2017-03-05T01:00:00Z,26.5255,-82.0032,2.313,-9999.0,1111122 
SCCF RECON,ioos:station:SCCF:13:1,2017-03-05T02:00:00Z,26.5255,-82.0032,2.24,-9999.0,1111122 
SCCF RECON,ioos:station:SCCF:13:1,2017-03-05T03:00:00Z,26.5255,-82.0032,2.16,-9999.0,1111122 
SCCF RECON,ioos:station:SCCF:13:1,2017-03-05T04:00:00Z,26.5255,-82.0032,2.08,-9999.0,1111122 
SCCF RECON,ioos:station:SCCF:13:1,2017-03-05T05:00:00Z,26.5255,-82.0032,2.01,-9999.0,1111122 
SCCF RECON,ioos:station:SCCF:13:1,2017-03-05T06:00:00Z,26.5255,-82.0032,1.97,-9999.0,1111122 
SCCF RECON,ioos:station:SCCF:13:1,2017-03-05T07:00:00Z,26.5255,-82.0032,1.963,-9999.0,1111122 
SCCF RECON,ioos:station:SCCF:13:1,2017-03-05T08:00:00Z,26.5255,-82.0032,2.04,-9999.0,1111122 
SCCF RECON,ioos:station:SCCF:13:1,2017-03-05T09:00:00Z,26.5255,-82.0032,2.16,-9999.0,1111122 
SCCF RECON,ioos:station:SCCF:13:1,2017-03-05T10:00:00Z,26.5255,-82.0032,2.24,-9999.0,1111122 
SCCF RECON,ioos:station:SCCF:13:1,2017-03-05T11:00:00Z,26.5255,-82.0032,2.309,-9999.0,1111122 
SCCF RECON,ioos:station:SCCF:13:1,2017-03-05T12:00:00Z,26.5255,-82.0032,2.36,-9999.0,1111122 
SCCF RECON,ioos:station:SCCF:13:1,2017-03-05T13:00:00Z,26.5255,-82.0032,2.37,-9999.0,1111122 
SCCF RECON,ioos:station:SCCF:13:1,2017-03-05T14:00:00Z,26.5255,-82.0032,2.352,-9999.0,1111122 
SCCF RECON,ioos:station:SCCF:13:1,2017-03-05T15:00:00Z,26.5255,-82.0032,2.301,-9999.0,1111122 
SCCF RECON,ioos:station:SCCF:13:1,2017-03-05T16:00:00Z,26.5255,-82.0032,2.269,-9999.0,1111122 
SCCF RECON,ioos:station:SCCF:13:1,2017-03-05T17:00:00Z,26.5255,-82.0032,2.268,-9999.0,1111122 
SCCF RECON,ioos:station:SCCF:13:1,2017-03-05T18:00:00Z,26.5255,-82.0032,2.33,-9999.0,1111122 
SCCF RECON,ioos:station:SCCF:13:1,2017-03-05T19:00:00Z,26.5255,-82.0032,2.36,-9999.0,1111122 
SCCF RECON,ioos:station:SCCF:13:1,2017-03-05T20:00:00Z,26.5255,-82.0032,2.39,-9999.0,1111122 
SCCF RECON,ioos:station:SCCF:13:1,2017-03-05T21:00:00Z,26.5255,-82.0032,2.439,-9999.0,1111122 
SCCF RECON,ioos:station:SCCF:13:1,2017-03-05T22:00:00Z,26.5255,-82.0032,2.48,-9999.0,1111122 
SCCF RECON,ioos:station:SCCF:13:1,2017-03-05T23:00:00Z,26.5255,-82.0032,2.51,-9999.0,1111122 
SCCF RECON,ioos:station:SCCF:13:1,2017-03-06T00:00:00Z,26.5255,-82.0032,2.527,-9999.0,1111122 
SCCF RECON,ioos:station:SCCF:13:1,2017-03-06T01:00:00Z,26.5255,-82.0032,2.511,-9999.0,1111122 
SCCF RECON,ioos:station:SCCF:13:1,2017-03-06T02:00:00Z,26.5255,-82.0032,2.459,-9999.0,1111122 
SCCF RECON,ioos:station:SCCF:13:1,2017-03-06T03:00:00Z,26.5255,-82.0032,2.38,-9999.0,1111122 
SCCF RECON,ioos:station:SCCF:13:1,2017-03-06T04:00:00Z,26.5255,-82.0032,2.282,-9999.0,1111122 
SCCF RECON,ioos:station:SCCF:13:1,2017-03-06T05:00:00Z,26.5255,-82.0032,2.201,-9999.0,1111122 
SCCF RECON,ioos:station:SCCF:13:1,2017-03-06T06:00:00Z,26.5255,-82.0032,2.13,-9999.0,1111122 
SCCF RECON,ioos:station:SCCF:13:1,2017-03-06T07:00:00Z,26.5255,-82.0032,2.07,-9999.0,1111122 
SCCF RECON,ioos:station:SCCF:13:1,2017-03-06T08:00:00Z,26.5255,-82.0032,2.05,-9999.0,1111122 
SCCF RECON,ioos:station:SCCF:13:1,2017-03-06T09:00:00Z,26.5255,-82.0032,2.12,-9999.0,1111122 
SCCF RECON,ioos:station:SCCF:13:1,2017-03-06T10:00:00Z,26.5255,-82.0032,2.21,-9999.0,1111122 
SCCF RECON,ioos:station:SCCF:13:1,2017-03-06T11:00:00Z,26.5255,-82.0032,2.29,-9999.0,1111122 
SCCF RECON,ioos:station:SCCF:13:1,2017-03-06T12:00:00Z,26.5255,-82.0032,2.33,-9999.0,1111122 
SCCF RECON,ioos:station:SCCF:13:1,2017-03-06T13:00:00Z,26.5255,-82.0032,2.374,-9999.0,1111122 
SCCF RECON,ioos:station:SCCF:13:1,2017-03-06T14:00:00Z,26.5255,-82.0032,2.4,-9999.0,1111122 
SCCF RECON,ioos:station:SCCF:13:1,2017-03-06T15:00:00Z,26.5255,-82.0032,2.42,-9999.0,1111122 
SCCF RECON,ioos:station:SCCF:13:1,2017-03-06T16:00:00Z,26.5255,-82.0032,2.421,-9999.0,1111122 
SCCF RECON,ioos:station:SCCF:13:1,2017-03-06T17:00:00Z,26.5255,-82.0032,2.399,-9999.0,1111122 
SCCF RECON,ioos:station:SCCF:13:1,2017-03-06T18:00:00Z,26.5255,-82.0032,2.398,-9999.0,1111122 
SCCF RECON,ioos:station:SCCF:13:1,2017-03-06T19:00:00Z,26.5255,-82.0032,2.429,-9999.0,1111122 
SCCF RECON,ioos:station:SCCF:13:1,2017-03-06T20:00:00Z,26.5255,-82.0032,2.446,-9999.0,1111122 
SCCF RECON,ioos:station:SCCF:13:1,2017-03-06T21:00:00Z,26.5255,-82.0032,2.528,-9999.0,1111122 
SCCF RECON,ioos:station:SCCF:13:1,2017-03-06T22:00:00Z,26.5255,-82.0032,2.582,-9999.0,1111122 
SCCF RECON,ioos:station:SCCF:13:1,2017-03-06T23:00:00Z,26.5255,-82.0032,2.638,-9999.0,1111122 
SCCF RECON,ioos:station:SCCF:13:1,2017-03-07T00:00:00Z,26.5255,-82.0032,2.66,-9999.0,1111122 
SCCF RECON,ioos:station:SCCF:13:1,2017-03-07T01:00:00Z,26.5255,-82.0032,2.7,-9999.0,1111122 
SCCF RECON,ioos:station:SCCF:13:1,2017-03-07T02:00:00Z,26.5255,-82.0032,2.679,-9999.0,1111122 
SCCF RECON,ioos:station:SCCF:13:1,2017-03-07T03:00:00Z,26.5255,-82.0032,2.581,-9999.0,1111122 
SCCF RECON,ioos:station:SCCF:13:1,2017-03-07T04:00:00Z,26.5255,-82.0032,2.48,-9999.0,1111122 
SCCF RECON,ioos:station:SCCF:13:1,2017-03-07T05:00:00Z,26.5255,-82.0032,2.39,-9999.0,1111122 
SCCF RECON,ioos:station:SCCF:13:1,2017-03-07T06:00:00Z,26.5255,-82.0032,2.31,-9999.0,1111122 
SCCF RECON,ioos:station:SCCF:13:1,2017-03-07T07:00:00Z,26.5255,-82.0032,2.226,-9999.0,1111122 
SCCF RECON,ioos:station:SCCF:13:1,2017-03-07T08:00:00Z,26.5255,-82.0032,2.15,-9999.0,1111122 
SCCF RECON,ioos:station:SCCF:13:1,2017-03-07T09:00:00Z,26.5255,-82.0032,2.13,-9999.0,1111122 
SCCF RECON,ioos:station:SCCF:13:1,2017-03-07T10:00:00Z,26.5255,-82.0032,2.2,-9999.0,1111122 
SCCF RECON,ioos:station:SCCF:13:1,2017-03-07T11:00:00Z,26.5255,-82.0032,2.31,-9999.0,1111122 
SCCF RECON,ioos:station:SCCF:13:1,2017-03-07T12:00:00Z,26.5255,-82.0032,2.37,-9999.0,1111122 
SCCF RECON,ioos:station:SCCF:13:1,2017-03-07T13:00:00Z,26.5255,-82.0032,2.43,-9999.0,1111122 
SCCF RECON,ioos:station:SCCF:13:1,2017-03-07T14:00:00Z,26.5255,-82.0032,2.49,-9999.0,1111122 
SCCF RECON,ioos:station:SCCF:13:1,2017-03-07T15:00:00Z,26.5255,-82.0032,2.52,-9999.0,1111122 
SCCF RECON,ioos:station:SCCF:13:1,2017-03-07T16:00:00Z,26.5255,-82.0032,2.52,-9999.0,1111122 
SCCF RECON,ioos:station:SCCF:13:1,2017-03-07T17:00:00Z,26.5255,-82.0032,2.498,-9999.0,1111122 
SCCF RECON,ioos:station:SCCF:13:1,2017-03-07T18:00:00Z,26.5255,-82.0032,2.479,-9999.0,1111122 
SCCF RECON,ioos:station:SCCF:13:1,2017-03-07T19:00:00Z,26.5255,-82.0032,2.473,-9999.0,1111122 
SCCF RECON,ioos:station:SCCF:13:1,2017-03-07T20:00:00Z,26.5255,-82.0032,2.5,-9999.0,1111122 
SCCF RECON,ioos:station:SCCF:13:1,2017-03-07T21:00:00Z,26.5255,-82.0032,2.54,-9999.0,1111122 
SCCF RECON,ioos:station:SCCF:13:1,2017-03-07T22:00:00Z,26.5255,-82.0032,2.55,-9999.0,1111122 
SCCF RECON,ioos:station:SCCF:13:1,2017-03-07T23:00:00Z,26.5255,-82.0032,2.58,-9999.0,1111122 
SCCF RECON,ioos:station:SCCF:13:1,2017-03-08T00:00:00Z,26.5255,-82.0032,2.64,-9999.0,1111122 
SCCF RECON,ioos:station:SCCF:13:1,2017-03-08T01:00:00Z,26.5255,-82.0032,2.7,-9999.0,1111122 
SCCF RECON,ioos:station:SCCF:13:1,2017-03-08T02:00:00Z,26.5255,-82.0032,2.74,-9999.0,1111122 
SCCF RECON,ioos:station:SCCF:13:1,2017-03-08T03:00:00Z,26.5255,-82.0032,2.77,-9999.0,1111122 
SCCF RECON,ioos:station:SCCF:13:1,2017-03-08T04:00:00Z,26.5255,-82.0032,2.7,-9999.0,1111122 
SCCF RECON,ioos:station:SCCF:13:1,2017-03-08T05:00:00Z,26.5255,-82.0032,2.6,-9999.0,1111122 
SCCF RECON,ioos:station:SCCF:13:1,2017-03-08T06:00:00Z,26.5255,-82.0032,2.49,-9999.0,1111122 
SCCF RECON,ioos:station:SCCF:13:1,2017-03-08T07:00:00Z,26.5255,-82.0032,2.39,-9999.0,1111122 
SCCF RECON,ioos:station:SCCF:13:1,2017-03-08T08:00:00Z,26.5255,-82.0032,2.29,-9999.0,1111122 
SCCF RECON,ioos:station:SCCF:13:1,2017-03-08T09:00:00Z,26.5255,-82.0032,2.202,-9999.0,1111122 
SCCF RECON,ioos:station:SCCF:13:1,2017-03-08T10:00:00Z,26.5255,-82.0032,2.164,-9999.0,1111122 
SCCF RECON,ioos:station:SCCF:13:1,2017-03-08T11:00:00Z,26.5255,-82.0032,2.2,-9999.0,1111122 
SCCF RECON,ioos:station:SCCF:13:1,2017-03-08T12:00:00Z,26.5255,-82.0032,2.3,-9999.0,1111122 
SCCF RECON,ioos:station:SCCF:13:1,2017-03-08T13:00:00Z,26.5255,-82.0032,2.39,-9999.0,1111122 
SCCF RECON,ioos:station:SCCF:13:1,2017-03-08T14:00:00Z,26.5255,-82.0032,2.45,-9999.0,1111122 
SCCF RECON,ioos:station:SCCF:13:1,2017-03-08T15:00:00Z,26.5255,-82.0032,2.48,-9999.0,1111122 
SCCF RECON,ioos:station:SCCF:13:1,2017-03-08T16:00:00Z,26.5255,-82.0032,2.491,-9999.0,1111122 
SCCF RECON,ioos:station:SCCF:13:1,2017-03-08T17:00:00Z,26.5255,-82.0032,2.489,-9999.0,1111122 
SCCF RECON,ioos:station:SCCF:13:1,2017-03-08T18:00:00Z,26.5255,-82.0032,2.477,-9999.0,1111122 
SCCF RECON,ioos:station:SCCF:13:1,2017-03-08T19:00:00Z,26.5255,-82.0032,2.45,-9999.0,1111122 
SCCF RECON,ioos:station:SCCF:13:1,2017-03-08T20:00:00Z,26.5255,-82.0032,2.415,-9999.0,1111122 
SCCF RECON,ioos:station:SCCF:13:1,2017-03-08T21:00:00Z,26.5255,-82.0032,2.4,-9999.0,1111122 
SCCF RECON,ioos:station:SCCF:13:1,2017-03-08T22:00:00Z,26.5255,-82.0032,2.39,-9999.0,1111122 
SCCF RECON,ioos:station:SCCF:13:1,2017-03-08T23:00:00Z,26.5255,-82.0032,2.421,-9999.0,1111122 
SCCF RECON,ioos:station:SCCF:13:1,2017-03-09T00:00:00Z,26.5255,-82.0032,2.482,-9999.0,1111122 
SCCF RECON,ioos:station:SCCF:13:1,2017-03-09T01:00:00Z,26.5255,-82.0032,2.56,-9999.0,1111122 
SCCF RECON,ioos:station:SCCF:13:1,2017-03-09T02:00:00Z,26.5255,-82.0032,2.63,-9999.0,1111122 
SCCF RECON,ioos:station:SCCF:13:1,2017-03-09T03:00:00Z,26.5255,-82.0032,2.68,-9999.0,1111122 
SCCF RECON,ioos:station:SCCF:13:1,2017-03-09T04:00:00Z,26.5255,-82.0032,2.699,-9999.0,1111122 
SCCF RECON,ioos:station:SCCF:13:1,2017-03-09T05:00:00Z,26.5255,-82.0032,2.66,-9999.0,1111122 
SCCF RECON,ioos:station:SCCF:13:1,2017-03-09T06:00:00Z,26.5255,-82.0032,2.55,-9999.0,1111122 
SCCF RECON,ioos:station:SCCF:13:1,2017-03-09T07:00:00Z,26.5255,-82.0032,2.43,-9999.0,1111122 
SCCF RECON,ioos:station:SCCF:13:1,2017-03-09T08:00:00Z,26.5255,-82.0032,2.34,-9999.0,1111122 
SCCF RECON,ioos:station:SCCF:13:1,2017-03-09T09:00:00Z,26.5255,-82.0032,2.25,-9999.0,1111122 
SCCF RECON,ioos:station:SCCF:13:1,2017-03-09T10:00:00Z,26.5255,-82.0032,2.18,-9999.0,1111122 
SCCF RECON,ioos:station:SCCF:13:1,2017-03-09T11:00:00Z,26.5255,-82.0032,2.12,-9999.0,1111122 
SCCF RECON,ioos:station:SCCF:13:1,2017-03-09T12:00:00Z,26.5255,-82.0032,2.14,-9999.0,1111122 
SCCF RECON,ioos:station:SCCF:13:1,2017-03-09T13:00:00Z,26.5255,-82.0032,2.268,-9999.0,1111122 
SCCF RECON,ioos:station:SCCF:13:1,2017-03-09T14:00:00Z,26.5255,-82.0032,2.36,-9999.0,1111122 
SCCF RECON,ioos:station:SCCF:13:1,2017-03-09T15:00:00Z,26.5255,-82.0032,2.411,-9999.0,1111122 
SCCF RECON,ioos:station:SCCF:13:1,2017-03-09T16:00:00Z,26.5255,-82.0032,2.47,-9999.0,1111122 
SCCF RECON,ioos:station:SCCF:13:1,2017-03-09T17:00:00Z,26.5255,-82.0032,2.499,-9999.0,1111122 
SCCF RECON,ioos:station:SCCF:13:1,2017-03-09T18:00:00Z,26.5255,-82.0032,2.479,-9999.0,1111122 
SCCF RECON,ioos:station:SCCF:13:1,2017-03-09T19:00:00Z,26.5255,-82.0032,2.41,-9999.0,1111122 
SCCF RECON,ioos:station:SCCF:13:1,2017-03-09T20:00:00Z,26.5255,-82.0032,2.339,-9999.0,1111122 
SCCF RECON,ioos:station:SCCF:13:1,2017-03-09T21:00:00Z,26.5255,-82.0032,2.27,-9999.0,1111122 
SCCF RECON,ioos:station:SCCF:13:1,2017-03-09T22:00:00Z,26.5255,-82.0032,2.233,-9999.0,1111122 
SCCF RECON,ioos:station:SCCF:13:1,2017-03-09T23:00:00Z,26.5255,-82.0032,2.25,-9999.0,1111122 
SCCF RECON,ioos:station:SCCF:13:1,2017-03-10T00:00:00Z,26.5255,-82.0032,2.34,-9999.0,1111122 
SCCF RECON,ioos:station:SCCF:13:1,2017-03-10T01:00:00Z,26.5255,-82.0032,2.439,-9999.0,1111122 
SCCF RECON,ioos:station:SCCF:13:1,2017-03-10T02:00:00Z,26.5255,-82.0032,2.52,-9999.0,1111122 
SCCF RECON,ioos:station:SCCF:13:1,2017-03-10T03:00:00Z,26.5255,-82.0032,2.58,-9999.0,1111122 
SCCF RECON,ioos:station:SCCF:13:1,2017-03-10T04:00:00Z,26.5255,-82.0032,2.62,-9999.0,1111122 
SCCF RECON,ioos:station:SCCF:13:1,2017-03-10T05:00:00Z,26.5255,-82.0032,2.65,-9999.0,1111122 
SCCF RECON,ioos:station:SCCF:13:1,2017-03-10T06:00:00Z,26.5255,-82.0032,2.61,-9999.0,1111122 
SCCF RECON,ioos:station:SCCF:13:1,2017-03-10T07:00:00Z,26.5255,-82.0032,2.47,-9999.0,1111122 
SCCF RECON,ioos:station:SCCF:13:1,2017-03-10T08:00:00Z,26.5255,-82.0032,2.36,-9999.0,1111122 
SCCF RECON,ioos:station:SCCF:13:1,2017-03-10T09:00:00Z,26.5255,-82.0032,2.27,-9999.0,1111122 
SCCF RECON,ioos:station:SCCF:13:1,2017-03-10T10:00:00Z,26.5255,-82.0032,2.19,-9999.0,1111122 
SCCF RECON,ioos:station:SCCF:13:1,2017-03-10T11:00:00Z,26.5255,-82.0032,2.121,-9999.0,1111122 
SCCF RECON,ioos:station:SCCF:13:1,2017-03-10T12:00:00Z,26.5255,-82.0032,2.1,-9999.0,1111122 
SCCF RECON,ioos:station:SCCF:13:1,2017-03-10T13:00:00Z,26.5255,-82.0032,2.19,-9999.0,1111122 
SCCF RECON,ioos:station:SCCF:13:1,2017-03-10T14:00:00Z,26.5255,-82.0032,2.34,-9999.0,1111122 
SCCF RECON,ioos:station:SCCF:13:1,2017-03-10T15:00:00Z,26.5255,-82.0032,2.421,-9999.0,1111122 
SCCF RECON,ioos:station:SCCF:13:1,2017-03-10T16:00:00Z,26.5255,-82.0032,2.489,-9999.0,1111122 
SCCF RECON,ioos:station:SCCF:13:1,2017-03-10T17:00:00Z,26.5255,-82.0032,2.54,-9999.0,1111122 
SCCF RECON,ioos:station:SCCF:13:1,2017-03-10T18:00:00Z,26.5255,-82.0032,2.53,-9999.0,1111122 
SCCF RECON,ioos:station:SCCF:13:1,2017-03-10T19:00:00Z,26.5255,-82.0032,2.468,-9999.0,1111122 
SCCF RECON,ioos:station:SCCF:13:1,2017-03-10T20:00:00Z,26.5255,-82.0032,2.37,-9999.0,1111122 
SCCF RECON,ioos:station:SCCF:13:1,2017-03-10T21:00:00Z,26.5255,-82.0032,2.311,-9999.0,1111122 
SCCF RECON,ioos:station:SCCF:13:1,2017-03-10T22:00:00Z,26.5255,-82.0032,2.249,-9999.0,1111122 
SCCF RECON,ioos:station:SCCF:13:1,2017-03-10T23:00:00Z,26.5255,-82.0032,2.202,-9999.0,1111122 
SCCF RECON,ioos:station:SCCF:13:1,2017-03-11T00:00:00Z,26.5255,-82.0032,2.19,-9999.0,1111122 
SCCF RECON,ioos:station:SCCF:13:1,2017-03-11T01:00:00Z,26.5255,-82.0032,2.251,-9999.0,1111122 
SCCF RECON,ioos:station:SCCF:13:1,2017-03-11T02:00:00Z,26.5255,-82.0032,2.39,-9999.0,1111122 
SCCF RECON,ioos:station:SCCF:13:1,2017-03-11T03:00:00Z,26.5255,-82.0032,2.51,-9999.0,1111122 
SCCF RECON,ioos:station:SCCF:13:1,2017-03-11T04:00:00Z,26.5255,-82.0032,2.58,-9999.0,1111122 
SCCF RECON,ioos:station:SCCF:13:1,2017-03-11T05:00:00Z,26.5255,-82.0032,2.63,-9999.0,1111122 
SCCF RECON,ioos:station:SCCF:13:1,2017-03-11T06:00:00Z,26.5255,-82.0032,2.62,-9999.0,1111122 
SCCF RECON,ioos:station:SCCF:13:1,2017-03-11T07:00:00Z,26.5255,-82.0032,2.52,-9999.0,1111122 
SCCF RECON,ioos:station:SCCF:13:1,2017-03-11T08:00:00Z,26.5255,-82.0032,2.4,-9999.0,1111122 
SCCF RECON,ioos:station:SCCF:13:1,2017-03-11T09:00:00Z,26.5255,-82.0032,2.31,-9999.0,1111122 
SCCF RECON,ioos:station:SCCF:13:1,2017-03-11T10:00:00Z,26.5255,-82.0032,2.23,-9999.0,1111122 
SCCF RECON,ioos:station:SCCF:13:1,2017-03-11T11:00:00Z,26.5255,-82.0032,2.147,-9999.0,1111122 
SCCF RECON,ioos:station:SCCF:13:1,2017-03-11T12:00:00Z,26.5255,-82.0032,2.08,-9999.0,1111122 
SCCF RECON,ioos:station:SCCF:13:1,2017-03-11T13:00:00Z,26.5255,-82.0032,2.072,-9999.0,1111122 